| time (UTC) | temp C | wind direction | speed KPH | gust KPH | rain 1hr cm | rain 24hr cm | rain mn cm | humidity % | barometer mb |
| 20260505093129 | 12 | 174 | 0.0 | 0.0 | 0.00 | 0.00 | 0.00 | 91 | 1013.9 |
| 20260505092129 | 12 | 173 | 0.0 | 0.0 | 0.00 | 0.00 | 0.00 | 91 | 1013.8 |
| 20260505091131 | 12 | 163 | 0.0 | 0.0 | 0.00 | 0.00 | 0.00 | 91 | 1013.8 |
| 20260505090146 | 12 | 185 | 0.0 | 0.0 | 0.00 | 0.00 | 0.00 | 91 | 1013.8 |
| 20260505085138 | 12 | 196 | 0.0 | 0.0 | 0.00 | 0.00 | 0.00 | 91 | 1013.7 |
| 20260505084138 | 11 | 206 | 0.0 | 0.0 | 0.00 | 0.00 | 0.00 | 92 | 1013.7 |
| 20260505083123 | 11 | 194 | 0.0 | 0.0 | 0.00 | 0.00 | 0.00 | 92 | 1013.6 |
| 20260505082140 | 11 | 192 | 0.0 | 0.0 | 0.00 | 0.00 | 0.00 | 91 | 1013.7 |
| 20260505081142 | 11 | 202 | 0.0 | 0.0 | 0.00 | 0.00 | 0.00 | 91 | 1013.6 |
| 20260505080139 | 11 | 202 | 0.0 | 0.0 | 0.00 | 0.00 | 0.00 | 91 | 1013.5 |
| 20260505075132 | 12 | 215 | 0.0 | 0.0 | 0.00 | 0.00 | 0.00 | 91 | 1013.3 |
| 20260505074128 | 12 | 209 | 0.0 | 0.0 | 0.00 | 0.00 | 0.00 | 91 | 1013.1 |
| 20260505073131 | 12 | 205 | 0.0 | 1.6 | 0.00 | 0.00 | 0.00 | 91 | 1013.0 |
| 20260505072122 | 12 | 216 | 0.0 | 6.4 | 0.00 | 0.00 | 0.00 | 91 | 1013.0 |
| 20260505071127 | 12 | 215 | 0.0 | 0.0 | 0.00 | 0.00 | 0.00 | 91 | 1013.0 |
| 20260505070142 | 12 | 222 | 0.0 | 0.0 | 0.00 | 0.00 | 0.00 | 91 | 1013.0 |
| 20260505065125 | 12 | 205 | 0.0 | 0.0 | 0.00 | 0.00 | 0.00 | 90 | 1012.8 |
| 20260505064126 | 12 | 206 | 0.0 | 9.7 | 0.00 | 0.00 | 0.00 | 90 | 1012.8 |
| 20260505063130 | 12 | 222 | 0.0 | 0.0 | 0.00 | 0.00 | 0.00 | 90 | 1012.7 |
| 20260505062129 | 12 | 266 | 0.0 | 0.0 | 0.00 | 0.00 | 0.00 | 90 | 1012.5 |
| 20260505061125 | 12 | 209 | 0.0 | 12.9 | 0.00 | 0.00 | 0.00 | 89 | 1012.3 |
| 20260505060147 | 12 | 233 | 1.6 | 12.9 | 0.00 | 0.00 | 0.00 | 89 | 1012.2 |
| 20260505055134 | 12 | 217 | 0.0 | 0.0 | 0.00 | 0.00 | 0.00 | 89 | 1012.1 |
| 20260505054134 | 12 | 224 | 0.0 | 11.3 | 0.00 | 0.00 | 0.00 | 88 | 1012.1 |
| 20260505053135 | 12 | 211 | 0.0 | 0.0 | 0.00 | 0.00 | 0.00 | 88 | 1012.2 |
| 20260505052136 | 12 | 238 | 1.6 | 14.5 | 0.00 | 0.00 | 0.00 | 88 | 1012.2 |
| 20260505051136 | 13 | 204 | 0.0 | 0.0 | 0.00 | 0.00 | 0.00 | 87 | 1012.0 |
| 20260505050137 | 13 | 207 | 0.0 | 11.3 | 0.00 | 0.00 | 0.00 | 86 | 1011.9 |
| 20260505041128 | 14 | 238 | 0.0 | 0.0 | 0.00 | 0.00 | 0.00 | 82 | 1011.3 |
| 20260505040149 | 15 | 232 | 0.0 | 0.0 | 0.00 | 0.00 | 0.00 | 81 | 1011.2 |
| 20260505035141 | 15 | 244 | 0.0 | 0.0 | 0.00 | 0.00 | 0.00 | 80 | 1011.2 |
| 20260505034122 | 15 | 252 | 0.0 | 8.0 | 0.00 | 0.00 | 0.00 | 78 | 1011.0 |
| 20260505033124 | 16 | 254 | 0.0 | 11.3 | 0.00 | 0.00 | 0.00 | 77 | 1010.9 |
| 20260505032141 | 16 | 235 | 0.0 | 9.7 | 0.00 | 0.00 | 0.00 | 76 | 1010.7 |
| 20260505031122 | 16 | 209 | 1.6 | 17.7 | 0.00 | 0.00 | 0.00 | 74 | 1010.6 |
| 20260505030141 | 17 | 235 | 4.8 | 17.7 | 0.00 | 0.00 | 0.00 | 73 | 1010.5 |
| 20260505025134 | 17 | 232 | 6.4 | 12.9 | 0.00 | 0.00 | 0.00 | 71 | 1010.4 |
| 20260505024134 | 18 | 253 | 4.8 | 14.5 | 0.00 | 0.00 | 0.00 | 70 | 1010.3 |
| 20260505023138 | 18 | 251 | 1.6 | 19.3 | 0.00 | 0.00 | 0.00 | 68 | 1010.3 |
| 20260505022122 | 19 | 256 | 3.2 | 12.9 | 0.00 | 0.00 | 0.00 | 67 | 1010.3 |
| 20260505021140 | 19 | 247 | 6.4 | 14.5 | 0.00 | 0.00 | 0.00 | 66 | 1010.2 |
| 20260505020136 | 20 | 192 | 0.0 | 12.9 | 0.00 | 0.00 | 0.00 | 65 | 1010.1 |
| 20260505015132 | 20 | 282 | 1.6 | 11.3 | 0.00 | 0.00 | 0.00 | 65 | 1010.2 |
| 20260505014136 | 20 | 268 | 1.6 | 16.1 | 0.00 | 0.00 | 0.00 | 64 | 1010.2 |
| 20260505013138 | 21 | 244 | 0.0 | 16.1 | 0.00 | 0.00 | 0.00 | 62 | 1010.2 |
| 20260505012136 | 21 | 290 | 3.2 | 14.5 | 0.00 | 0.00 | 0.00 | 61 | 1010.3 |
| 20260505011136 | 22 | 271 | 3.2 | 14.5 | 0.00 | 0.00 | 0.00 | 61 | 1010.2 |
| 20260505010137 | 22 | 277 | 3.2 | 14.5 | 0.00 | 0.00 | 0.00 | 59 | 1010.2 |
| 20260505005128 | 23 | 246 | 3.2 | 20.9 | 0.00 | 0.00 | 0.00 | 59 | 1010.2 |
| 20260505004131 | 23 | 288 | 3.2 | 16.1 | 0.00 | 0.00 | 0.00 | 57 | 1010.2 |
| 20260505003127 | 23 | 282 | 1.6 | 14.5 | 0.00 | 0.00 | 0.00 | 58 | 1010.2 |
| 20260505002129 | 23 | 277 | 6.4 | 16.1 | 0.00 | 0.00 | 0.00 | 57 | 1010.0 |
| 20260505001130 | 23 | 308 | 8.0 | 17.7 | 0.00 | 0.00 | 0.00 | 57 | 1010.1 |
| 20260505000151 | 23 | 306 | 4.8 | 16.1 | 0.00 | 0.00 | 0.00 | 58 | 1010.0 |
| 20260504235139 | 24 | 261 | 1.6 | 12.9 | 0.00 | 0.00 | 0.00 | 57 | 1010.0 |
| 20260504234139 | 24 | 205 | 0.0 | 12.9 | 0.00 | 0.00 | 0.00 | 57 | 1010.1 |
| 20260504233140 | 24 | 296 | 0.0 | 12.9 | 0.00 | 0.00 | 0.00 | 58 | 1010.0 |
| 20260504232139 | 24 | 291 | 3.2 | 12.9 | 0.00 | 0.00 | 0.00 | 57 | 1010.2 |
| 20260504231140 | 24 | 281 | 4.8 | 19.3 | 0.00 | 0.00 | 0.00 | 57 | 1010.3 |
| 20260504230139 | 24 | 242 | 1.6 | 16.1 | 0.00 | 0.00 | 0.00 | 58 | 1010.5 |
| 20260504225132 | 23 | 271 | 3.2 | 16.1 | 0.00 | 0.00 | 0.00 | 59 | 1010.6 |
| 20260504224131 | 23 | 282 | 8.0 | 14.5 | 0.00 | 0.00 | 0.00 | 59 | 1010.6 |
| 20260504223130 | 23 | 245 | 1.6 | 17.7 | 0.00 | 0.00 | 0.00 | 60 | 1010.7 |
| 20260504222133 | 23 | 265 | 1.6 | 11.3 | 0.00 | 0.00 | 0.00 | 60 | 1010.8 |
| 20260504221132 | 23 | 308 | 3.2 | 14.5 | 0.00 | 0.00 | 0.00 | 61 | 1010.8 |
| 20260504220152 | 23 | 311 | 8.0 | 14.5 | 0.00 | 0.00 | 0.00 | 60 | 1010.9 |
| 20260504215129 | 23 | 231 | 1.6 | 11.3 | 0.00 | 0.00 | 0.00 | 61 | 1011.0 |
| 20260504214126 | 23 | 215 | 1.6 | 11.3 | 0.00 | 0.00 | 0.00 | 59 | 1011.1 |
| 20260504213124 | 23 | 223 | 0.0 | 6.4 | 0.00 | 0.00 | 0.00 | 62 | 1011.1 |
| 20260504212125 | 23 | 213 | 1.6 | 16.1 | 0.00 | 0.00 | 0.00 | 60 | 1011.3 |
| 20260504211124 | 23 | 307 | 3.2 | 12.9 | 0.00 | 0.00 | 0.00 | 61 | 1011.2 |
| 20260504210136 | 23 | 281 | 1.6 | 11.3 | 0.00 | 0.00 | 0.00 | 62 | 1011.2 |
| 20260504205131 | 22 | 196 | 8.0 | 14.5 | 0.00 | 0.00 | 0.00 | 58 | 1011.3 |
| 20260504204133 | 22 | 226 | 1.6 | 14.5 | 0.00 | 0.00 | 0.00 | 59 | 1011.4 |
| 20260504203130 | 23 | 236 | 3.2 | 9.7 | 0.00 | 0.00 | 0.00 | 59 | 1011.3 |
| 20260504202128 | 22 | 236 | 0.0 | 6.4 | 0.00 | 0.00 | 0.00 | 60 | 1011.4 |
| 20260504201126 | 22 | 209 | 3.2 | 11.3 | 0.00 | 0.00 | 0.00 | 59 | 1011.5 |
| 20260504200149 | 22 | 286 | 1.6 | 6.4 | 0.00 | 0.00 | 0.00 | 62 | 1011.5 |
| 20260504195141 | 22 | 254 | 1.6 | 8.0 | 0.00 | 0.00 | 0.00 | 61 | 1011.7 |
| 20260504194138 | 22 | 227 | 1.6 | 12.9 | 0.00 | 0.00 | 0.00 | 62 | 1011.7 |
| 20260504193138 | 21 | 254 | 0.0 | 11.3 | 0.00 | 0.00 | 0.00 | 64 | 1011.7 |
| 20260504192139 | 21 | 288 | 1.6 | 11.3 | 0.00 | 0.00 | 0.00 | 66 | 1011.7 |
| 20260504191140 | 21 | 252 | 0.0 | 11.3 | 0.00 | 0.00 | 0.00 | 66 | 1011.8 |
| 20260504190134 | 20 | 219 | 1.6 | 12.9 | 0.00 | 0.00 | 0.00 | 66 | 1011.9 |
| 20260504185128 | 20 | 212 | 3.2 | 12.9 | 0.00 | 0.00 | 0.00 | 66 | 1012.0 |
| 20260504184129 | 20 | 173 | 0.0 | 14.5 | 0.00 | 0.00 | 0.00 | 68 | 1012.0 |
| 20260504183130 | 20 | 252 | 1.6 | 12.9 | 0.00 | 0.00 | 0.00 | 68 | 1012.1 |
| 20260504182131 | 20 | 203 | 6.4 | 11.3 | 0.00 | 0.00 | 0.00 | 67 | 1012.1 |
| 20260504181131 | 20 | 246 | 0.0 | 8.0 | 0.00 | 0.00 | 0.00 | 68 | 1012.1 |
| 20260504180153 | 19 | 304 | 0.0 | 9.7 | 0.00 | 0.00 | 0.00 | 69 | 1012.1 |
| 20260504175125 | 18 | 221 | 3.2 | 12.9 | 0.00 | 0.00 | 0.00 | 70 | 1012.0 |
| 20260504174124 | 18 | 219 | 1.6 | 12.9 | 0.00 | 0.00 | 0.00 | 71 | 1012.1 |
| 20260504173122 | 18 | 241 | 0.0 | 9.7 | 0.00 | 0.00 | 0.00 | 71 | 1012.1 |
| 20260504172123 | 17 | 204 | 3.2 | 12.9 | 0.00 | 0.00 | 0.00 | 70 | 1012.0 |
| 20260504171127 | 17 | 230 | 1.6 | 9.7 | 0.00 | 0.00 | 0.00 | 72 | 1012.0 |
| 20260504170145 | 17 | 211 | 1.6 | 11.3 | 0.00 | 0.00 | 0.00 | 73 | 1012.0 |
| 20260504160134 | 16 | 207 | 0.0 | 0.0 | 0.00 | 0.00 | 0.00 | 72 | 1011.7 |
| 20260504151134 | 15 | 234 | 0.0 | 0.0 | 0.00 | 0.00 | 0.00 | 76 | 1011.2 |
| 20260504150136 | 15 | 229 | 0.0 | 0.0 | 0.00 | 0.00 | 0.00 | 76 | 1011.2 |
| 20260504141133 | 11 | 44 | 0.0 | 0.0 | 0.00 | 0.00 | 0.00 | 90 | 1010.9 |
| 20260504140140 | 11 | 44 | 0.0 | 0.0 | 0.00 | 0.00 | 0.00 | 91 | 1010.8 |
| 20260504130146 | 10 | 45 | 0.0 | 0.0 | 0.00 | 0.00 | 0.00 | 89 | 1010.1 |
| 20260504120146 | 10 | 44 | 0.0 | 0.0 | 0.00 | 0.00 | 0.00 | 88 | 1009.9 |
| 20260504110146 | 11 | 44 | 0.0 | 0.0 | 0.00 | 0.00 | 0.00 | 85 | 1009.9 |
| 20260504100142 | 11 | 45 | 0.0 | 0.0 | 0.00 | 0.00 | 0.00 | 82 | 1009.7 |